Time,TemperatureF,DewpointF,PressureIn,WindDirection,WindDirectionDegrees,WindSpeedMPH,WindSpeedGustMPH,Humidity,HourlyPrecipIn,Conditions,Clouds,dailyrainin,SolarRadiationWatts/m^2,SoftwareType,DateUTC
2013-02-07 00:01:00,30.0,20.0,-100.00,SE,130,6.0,16.0,66,0.00,,,0.03,0.000000,,2013-02-07 08:01:00,
2013-02-07 00:11:00,30.0,20.0,-100.00,SE,130,6.0,16.0,66,0.00,,,0.03,0.000000,,2013-02-07 08:11:00,
2013-02-07 00:42:00,31.0,20.0,-100.00,SSE,164,9.0,19.0,64,0.00,,,0.03,0.000000,,2013-02-07 08:42:00,
2013-02-07 00:52:00,31.0,20.0,-100.00,SSE,164,9.0,19.0,64,0.00,,,0.03,0.000000,,2013-02-07 08:52:00,
2013-02-07 01:01:00,31.0,20.0,-100.00,SSE,164,9.0,19.0,64,0.00,,,0.03,0.000000,,2013-02-07 09:01:00,
2013-02-07 01:11:00,31.0,20.0,-100.00,SSE,164,9.0,19.0,64,0.00,,,0.03,0.000000,,2013-02-07 09:11:00,
2013-02-07 01:32:00,30.0,20.0,-100.00,ESE,107,5.0,17.0,66,0.00,,,0.03,0.000000,,2013-02-07 09:32:00,
2013-02-07 01:42:00,30.0,20.0,-100.00,ESE,107,5.0,17.0,66,0.00,,,0.03,0.000000,,2013-02-07 09:42:00,
2013-02-07 01:52:00,30.0,20.0,-100.00,ESE,107,5.0,17.0,66,0.00,,,0.03,0.000000,,2013-02-07 09:52:00,
2013-02-07 02:01:00,30.0,20.0,-100.00,ESE,107,5.0,17.0,66,0.00,,,0.03,0.000000,,2013-02-07 10:01:00,
2013-02-07 02:11:00,30.0,20.0,-100.00,ESE,107,5.0,17.0,66,0.00,,,0.03,0.000000,,2013-02-07 10:11:00,
2013-02-07 02:42:00,30.0,21.0,-100.00,SSE,151,3.0,17.0,69,0.00,,,-99.99,0.000000,,2013-02-07 10:42:00,
2013-02-07 02:52:00,30.0,21.0,-100.00,SSE,151,3.0,17.0,69,0.00,,,-99.99,0.000000,,2013-02-07 10:52:00,
2013-02-07 03:01:00,30.0,21.0,-100.00,SSE,151,3.0,17.0,69,0.00,,,-99.99,0.000000,,2013-02-07 11:01:00,
2013-02-07 03:11:00,30.0,21.0,-100.00,SSE,151,3.0,17.0,69,0.00,,,-99.99,0.000000,,2013-02-07 11:11:00,
2013-02-07 03:44:00,30.0,21.0,-100.00,SSE,148,3.0,11.0,68,0.00,,,0.03,0.000000,,2013-02-07 11:44:00,
2013-02-07 03:52:00,30.0,21.0,-100.00,SSE,148,3.0,11.0,68,0.00,,,0.03,0.000000,,2013-02-07 11:52:00,
2013-02-07 04:01:00,30.0,21.0,-100.00,SSE,148,3.0,11.0,68,0.00,,,0.03,0.000000,,2013-02-07 12:01:00,
2013-02-07 04:11:00,30.0,21.0,-100.00,SSE,148,3.0,11.0,68,0.00,,,0.03,0.000000,,2013-02-07 12:11:00,
2013-02-07 04:33:00,30.0,21.0,-100.00,SE,128,3.0,14.0,70,0.00,,,0.03,0.000000,,2013-02-07 12:33:00,
2013-02-07 04:42:00,30.0,21.0,-100.00,SE,128,3.0,14.0,70,0.00,,,0.03,0.000000,,2013-02-07 12:42:00,
2013-02-07 04:53:00,30.0,21.0,-100.00,SE,128,3.0,14.0,70,0.00,,,0.03,0.000000,,2013-02-07 12:53:00,
2013-02-07 05:02:00,30.0,21.0,-100.00,SE,128,3.0,14.0,70,0.00,,,0.03,0.000000,,2013-02-07 13:02:00,
2013-02-07 05:11:00,30.0,21.0,-100.00,SE,128,3.0,14.0,70,0.00,,,0.03,0.000000,,2013-02-07 13:11:00,
2013-02-07 05:42:00,29.0,20.0,-100.00,South,191,4.0,11.0,70,0.00,,,0.03,0.000000,,2013-02-07 13:42:00,
2013-02-07 05:52:00,29.0,20.0,-100.00,South,191,4.0,11.0,70,0.00,,,0.03,0.000000,,2013-02-07 13:52:00,
2013-02-07 06:01:00,29.0,20.0,-100.00,South,191,4.0,11.0,70,0.00,,,0.03,0.000000,,2013-02-07 14:01:00,
2013-02-07 06:11:00,29.0,20.0,-100.00,South,191,4.0,11.0,70,0.00,,,0.03,0.000000,,2013-02-07 14:11:00,
2013-02-07 06:32:00,28.0,25.0,-100.00,South,171,6.0,16.0,88,0.00,,,0.03,0.000000,,2013-02-07 14:32:00,
2013-02-07 06:42:00,28.0,25.0,-100.00,South,171,6.0,16.0,88,0.00,,,0.03,0.000000,,2013-02-07 14:42:00,
2013-02-07 06:52:00,28.0,25.0,-100.00,South,171,6.0,16.0,88,0.00,,,0.03,0.000000,,2013-02-07 14:52:00,
2013-02-07 07:01:00,28.0,25.0,-100.00,South,171,6.0,16.0,88,0.00,,,0.03,0.000000,,2013-02-07 15:01:00,
2013-02-07 07:11:00,28.0,25.0,-100.00,South,171,6.0,16.0,88,0.00,,,0.03,0.000000,,2013-02-07 15:11:00,
2013-02-07 07:42:00,28.0,26.0,-100.00,SSE,161,6.0,11.0,93,0.00,,,0.03,1.000000,,2013-02-07 15:42:00,
2013-02-07 07:52:00,28.0,26.0,-100.00,SSE,161,6.0,11.0,93,0.00,,,0.03,1.000000,,2013-02-07 15:52:00,
2013-02-07 08:01:00,28.0,26.0,-100.00,SSE,161,6.0,11.0,93,0.00,,,0.03,1.000000,,2013-02-07 16:01:00,
2013-02-07 08:11:00,28.0,26.0,-100.00,SSE,161,6.0,11.0,93,0.00,,,0.03,1.000000,,2013-02-07 16:11:00,
2013-02-07 08:42:00,28.0,27.0,-100.00,South,180,4.0,11.0,94,0.00,,,-99.99,15.000000,,2013-02-07 16:42:00,
2013-02-07 08:52:00,28.0,27.0,-100.00,South,180,4.0,11.0,94,0.00,,,-99.99,15.000000,,2013-02-07 16:52:00,
2013-02-07 09:01:00,28.0,27.0,-100.00,South,180,4.0,11.0,94,0.00,,,-99.99,15.000000,,2013-02-07 17:01:00,
2013-02-07 09:11:00,28.0,27.0,-100.00,South,180,4.0,11.0,94,0.00,,,-99.99,15.000000,,2013-02-07 17:11:00,
2013-02-07 09:43:00,29.0,26.0,-100.00,SW,227,3.0,6.0,88,0.01,,,0.04,100.000000,,2013-02-07 17:43:00,
2013-02-07 09:52:00,29.0,26.0,-100.00,SW,227,3.0,6.0,88,0.01,,,0.04,100.000000,,2013-02-07 17:52:00,
2013-02-07 10:01:00,29.0,26.0,-100.00,SW,227,3.0,6.0,88,0.01,,,0.04,100.000000,,2013-02-07 18:01:00,
2013-02-07 10:11:00,29.0,26.0,-100.00,SW,227,3.0,6.0,88,0.01,,,0.04,100.000000,,2013-02-07 18:11:00,
2013-02-07 10:42:00,30.0,28.0,-100.00,WSW,237,3.0,10.0,91,0.00,,,0.01,99.000000,,2013-02-07 18:42:00,
2013-02-07 10:52:00,30.0,28.0,-100.00,WSW,237,3.0,10.0,91,0.00,,,0.01,99.000000,,2013-02-07 18:52:00,
2013-02-07 11:01:00,30.0,28.0,-100.00,WSW,237,3.0,10.0,91,0.00,,,0.01,99.000000,,2013-02-07 19:01:00,
2013-02-07 11:11:00,30.0,28.0,-100.00,WSW,237,3.0,10.0,91,0.00,,,0.01,99.000000,,2013-02-07 19:11:00,
2013-02-07 11:42:00,28.0,26.0,-100.00,NW,312,6.0,10.0,91,0.00,,,0.01,103.000000,,2013-02-07 19:42:00,
2013-02-07 11:52:00,28.0,26.0,-100.00,NW,312,6.0,10.0,91,0.00,,,0.01,103.000000,,2013-02-07 19:52:00,
2013-02-07 12:01:00,28.0,26.0,-100.00,NW,312,6.0,10.0,91,0.00,,,0.01,103.000000,,2013-02-07 20:01:00,
2013-02-07 12:11:00,28.0,26.0,-100.00,NW,312,6.0,10.0,91,0.00,,,0.01,103.000000,,2013-02-07 20:11:00,
2013-02-07 12:42:00,28.0,25.0,-100.00,WNW,300,7.0,11.0,87,0.00,,,0.01,173.000000,,2013-02-07 20:42:00,
2013-02-07 12:52:00,28.0,25.0,-100.00,WNW,300,7.0,11.0,87,0.00,,,0.01,173.000000,,2013-02-07 20:52:00,
2013-02-07 13:01:00,28.0,25.0,-100.00,WNW,300,7.0,11.0,87,0.00,,,0.01,173.000000,,2013-02-07 21:01:00,
2013-02-07 13:11:00,28.0,25.0,-100.00,WNW,300,7.0,11.0,87,0.00,,,0.01,173.000000,,2013-02-07 21:11:00,
2013-02-07 13:42:00,28.0,24.0,-100.00,NW,307,8.0,12.0,86,0.00,,,0.01,209.000000,,2013-02-07 21:42:00,
2013-02-07 13:52:00,28.0,24.0,-100.00,NW,307,8.0,12.0,86,0.00,,,0.01,209.000000,,2013-02-07 21:52:00,
2013-02-07 14:01:00,28.0,24.0,-100.00,NW,307,8.0,12.0,86,0.00,,,0.01,209.000000,,2013-02-07 22:01:00,
2013-02-07 14:11:00,28.0,24.0,-100.00,NW,307,8.0,12.0,86,0.00,,,0.01,209.000000,,2013-02-07 22:11:00,
2013-02-07 14:32:00,24.0,20.0,-100.00,NW,306,10.0,16.0,86,0.00,,,0.01,130.000000,,2013-02-07 22:32:00,
2013-02-07 14:42:00,24.0,20.0,-100.00,NW,306,10.0,16.0,86,0.00,,,0.01,130.000000,,2013-02-07 22:42:00,
2013-02-07 14:52:00,24.0,20.0,-100.00,NW,306,10.0,16.0,86,0.00,,,0.01,130.000000,,2013-02-07 22:52:00,
2013-02-07 15:01:00,24.0,20.0,-100.00,NW,306,10.0,16.0,86,0.00,,,0.01,130.000000,,2013-02-07 23:01:00,
2013-02-07 15:11:00,24.0,20.0,-100.00,NW,306,10.0,16.0,86,0.00,,,0.01,130.000000,,2013-02-07 23:11:00,
2013-02-07 15:42:00,25.0,18.0,-100.00,WNW,300,8.0,15.0,75,0.00,,,0.01,148.000000,,2013-02-07 23:42:00,
2013-02-07 15:52:00,25.0,18.0,-100.00,WNW,300,8.0,15.0,75,0.00,,,0.01,148.000000,,2013-02-07 23:52:00,
2013-02-07 16:01:00,25.0,18.0,-100.00,WNW,300,8.0,15.0,75,0.00,,,0.01,148.000000,,2013-02-08 00:01:00,
2013-02-07 16:11:00,25.0,18.0,-100.00,WNW,300,8.0,15.0,75,0.00,,,0.01,148.000000,,2013-02-08 00:11:00,
2013-02-07 17:52:00,24.0,20.0,-100.00,West,263,2.0,6.0,84,0.00,,,0.01,11.000000,,2013-02-08 01:52:00,
2013-02-07 18:01:00,24.0,20.0,-100.00,West,263,2.0,6.0,84,0.00,,,0.01,11.000000,,2013-02-08 02:01:00,
2013-02-07 18:11:00,24.0,20.0,-100.00,West,263,2.0,6.0,84,0.00,,,0.01,11.000000,,2013-02-08 02:11:00,
2013-02-07 18:42:00,23.0,21.0,-100.00,WNW,284,3.0,6.0,91,0.00,,,0.01,0.000000,,2013-02-08 02:42:00,
2013-02-07 18:52:00,23.0,21.0,-100.00,WNW,284,3.0,6.0,91,0.00,,,0.01,0.000000,,2013-02-08 02:52:00,
2013-02-07 19:01:00,23.0,21.0,-100.00,WNW,284,3.0,6.0,91,0.00,,,0.01,0.000000,,2013-02-08 03:01:00,
2013-02-07 19:12:00,23.0,21.0,-100.00,WNW,284,3.0,6.0,91,0.00,,,0.01,0.000000,,2013-02-08 03:12:00,
2013-02-07 19:32:00,23.0,21.0,-100.00,NW,326,3.0,6.0,91,0.00,,,0.01,0.000000,,2013-02-08 03:32:00,
2013-02-07 19:42:00,23.0,21.0,-100.00,NW,326,3.0,6.0,91,0.00,,,0.01,0.000000,,2013-02-08 03:42:00,
2013-02-07 19:52:00,23.0,21.0,-100.00,NW,326,3.0,6.0,91,0.00,,,0.01,0.000000,,2013-02-08 03:52:00,
2013-02-07 20:01:00,23.0,21.0,-100.00,NW,326,3.0,6.0,91,0.00,,,0.01,0.000000,,2013-02-08 04:01:00,
2013-02-07 20:11:00,23.0,21.0,-100.00,NW,326,3.0,6.0,91,0.00,,,0.01,0.000000,,2013-02-08 04:11:00,
2013-02-07 20:32:00,22.0,20.0,-100.00,NW,314,3.0,6.0,90,0.00,,,0.01,0.000000,,2013-02-08 04:32:00,
2013-02-07 20:42:00,22.0,20.0,-100.00,NW,314,3.0,6.0,90,0.00,,,0.01,0.000000,,2013-02-08 04:42:00,
2013-02-07 20:52:00,22.0,20.0,-100.00,NW,314,3.0,6.0,90,0.00,,,0.01,0.000000,,2013-02-08 04:52:00,
2013-02-07 21:01:00,22.0,20.0,-100.00,NW,314,3.0,6.0,90,0.00,,,0.01,0.000000,,2013-02-08 05:01:00,
2013-02-07 21:11:00,22.0,20.0,-100.00,NW,314,3.0,6.0,90,0.00,,,0.01,0.000000,,2013-02-08 05:11:00,
2013-02-07 21:32:00,22.0,20.0,-100.00,NNW,336,4.0,6.0,90,0.00,,,0.01,0.000000,,2013-02-08 05:32:00,
2013-02-07 21:42:00,22.0,20.0,-100.00,NNW,336,4.0,6.0,90,0.00,,,0.01,0.000000,,2013-02-08 05:42:00,
2013-02-07 21:52:00,22.0,20.0,-100.00,NNW,336,4.0,6.0,90,0.00,,,0.01,0.000000,,2013-02-08 05:52:00,
2013-02-07 22:01:00,22.0,20.0,-100.00,NNW,336,4.0,6.0,90,0.00,,,0.01,0.000000,,2013-02-08 06:01:00,
2013-02-07 22:11:00,22.0,20.0,-100.00,NNW,336,4.0,6.0,90,0.00,,,0.01,0.000000,,2013-02-08 06:11:00,
2013-02-07 22:32:00,22.0,18.0,-100.00,NNW,327,3.0,6.0,86,0.00,,,0.01,0.000000,,2013-02-08 06:32:00,
2013-02-07 22:42:00,22.0,18.0,-100.00,NNW,327,3.0,6.0,86,0.00,,,0.01,0.000000,,2013-02-08 06:42:00,
2013-02-07 22:52:00,22.0,18.0,-100.00,NNW,327,3.0,6.0,86,0.00,,,0.01,0.000000,,2013-02-08 06:52:00,
2013-02-07 23:01:00,22.0,18.0,-100.00,NNW,327,3.0,6.0,86,0.00,,,0.01,0.000000,,2013-02-08 07:01:00,
2013-02-07 23:11:00,22.0,18.0,-100.00,NNW,327,3.0,6.0,86,0.00,,,0.01,0.000000,,2013-02-08 07:11:00,
2013-02-07 23:32:00,22.0,17.0,-100.00,NW,304,5.0,7.0,82,0.00,,,0.01,0.000000,,2013-02-08 07:32:00,
2013-02-07 23:42:00,22.0,17.0,-100.00,NW,304,5.0,7.0,82,0.00,,,0.01,0.000000,,2013-02-08 07:42:00,
2013-02-07 23:52:00,22.0,17.0,-100.00,NW,304,5.0,7.0,82,0.00,,,0.01,0.000000,,2013-02-08 07:52:00,